Time,TemperatureF,DewpointF,PressureIn,WindDirection,WindDirectionDegrees,WindSpeedMPH,WindSpeedGustMPH,Humidity,HourlyPrecipIn,Conditions,Clouds,dailyrainin,SoftwareType,DateUTC
2013-05-27 00:02:00,56.0,-99.9,29.98,South,185,4.0,6.0,-999,-99.99,,,-99.99,,2013-05-27 07:02:00,
2013-05-27 00:11:00,55.0,-99.9,29.99,South,190,4.0,8.0,-999,-99.99,,,-99.99,,2013-05-27 07:11:00,
2013-05-27 00:22:00,55.0,-99.9,29.99,SSW,199,5.0,11.0,-999,-99.99,,,-99.99,,2013-05-27 07:22:00,
2013-05-27 00:32:00,55.0,-99.9,29.99,SSW,202,6.0,9.0,-999,-99.99,,,-99.99,,2013-05-27 07:32:00,
2013-05-27 00:42:00,55.0,-99.9,29.98,South,183,4.0,6.0,-999,-99.99,,,-99.99,,2013-05-27 07:42:00,
2013-05-27 00:53:00,55.0,-99.9,29.98,SSW,195,3.0,7.0,-999,-99.99,,,-99.99,,2013-05-27 07:53:00,
2013-05-27 01:02:00,55.0,-99.9,29.98,SSE,164,5.0,7.0,-999,-99.99,,,-99.99,,2013-05-27 08:02:00,
2013-05-27 01:12:00,55.0,-99.9,29.98,SSE,152,3.0,5.0,-999,-99.99,,,-99.99,,2013-05-27 08:12:00,
2013-05-27 01:22:00,55.0,-99.9,29.98,South,179,5.0,9.0,-999,-99.99,,,-99.99,,2013-05-27 08:22:00,
2013-05-27 01:33:00,55.0,-99.9,29.98,South,179,6.0,8.0,-999,-99.99,,,-99.99,,2013-05-27 08:33:00,
2013-05-27 01:42:00,55.0,-99.9,29.98,South,181,5.0,8.0,-999,-99.99,,,-99.99,,2013-05-27 08:42:00,
2013-05-27 01:52:00,55.0,-99.9,29.97,South,173,3.0,10.0,-999,-99.99,,,-99.99,,2013-05-27 08:52:00,
2013-05-27 02:02:00,55.0,-99.9,29.97,SSE,167,4.0,7.0,-999,-99.99,,,-99.99,,2013-05-27 09:02:00,
2013-05-27 02:11:00,55.0,-99.9,29.97,SE,143,4.0,6.0,-999,-99.99,,,-99.99,,2013-05-27 09:11:00,
2013-05-27 02:22:00,55.0,-99.9,29.97,SE,128,6.0,8.0,-999,-99.99,,,-99.99,,2013-05-27 09:22:00,
2013-05-27 02:33:00,55.0,-99.9,29.96,SSE,165,5.0,8.0,-999,-99.99,,,-99.99,,2013-05-27 09:33:00,
2013-05-27 02:42:00,54.0,-99.9,29.96,ESE,121,4.0,6.0,-999,-99.99,,,-99.99,,2013-05-27 09:42:00,
2013-05-27 02:53:00,54.0,-99.9,29.96,SE,128,5.0,6.0,-999,-99.99,,,-99.99,,2013-05-27 09:53:00,
2013-05-27 03:03:00,54.0,-99.9,29.95,SE,131,4.0,7.0,-999,-99.99,,,-99.99,,2013-05-27 10:03:00,
2013-05-27 03:12:00,54.0,-99.9,29.95,ESE,119,4.0,5.0,-999,-99.99,,,-99.99,,2013-05-27 10:12:00,
2013-05-27 03:23:00,54.0,-99.9,29.95,SE,139,2.0,5.0,-999,-99.99,,,-99.99,,2013-05-27 10:23:00,
2013-05-27 03:32:00,54.0,-99.9,29.94,ESE,123,5.0,6.0,-999,-99.99,,,-99.99,,2013-05-27 10:32:00,
2013-05-27 03:42:00,54.0,-99.9,29.94,ESE,118,4.0,6.0,-999,-99.99,,,-99.99,,2013-05-27 10:42:00,
2013-05-27 03:53:00,54.0,-99.9,29.93,ESE,113,4.0,8.0,-999,-99.99,,,-99.99,,2013-05-27 10:53:00,
2013-05-27 04:02:00,54.0,-99.9,29.93,ESE,116,4.0,8.0,-999,-99.99,,,-99.99,,2013-05-27 11:02:00,
2013-05-27 04:12:00,54.0,-99.9,29.92,ESE,105,4.0,7.0,-999,-99.99,,,-99.99,,2013-05-27 11:12:00,
2013-05-27 04:22:00,54.0,-99.9,29.92,ESE,113,3.0,7.0,-999,-99.99,,,-99.99,,2013-05-27 11:22:00,
2013-05-27 04:32:00,53.0,-99.9,29.91,ESE,103,3.0,5.0,-999,-99.99,,,-99.99,,2013-05-27 11:32:00,
2013-05-27 04:42:00,54.0,-99.9,29.91,ESE,121,3.0,4.0,-999,-99.99,,,-99.99,,2013-05-27 11:42:00,
2013-05-27 04:52:00,54.0,-99.9,29.90,ESE,110,3.0,4.0,-999,-99.99,,,-99.99,,2013-05-27 11:52:00,
2013-05-27 05:02:00,54.0,-99.9,29.90,SE,130,3.0,4.0,-999,-99.99,,,-99.99,,2013-05-27 12:02:00,
2013-05-27 05:12:00,54.0,-99.9,29.89,SE,135,3.0,4.0,-999,-99.99,,,-99.99,,2013-05-27 12:12:00,
2013-05-27 05:22:00,54.0,-99.9,29.89,ESE,120,4.0,5.0,-999,-99.99,,,-99.99,,2013-05-27 12:22:00,
2013-05-27 05:32:00,54.0,-99.9,29.88,ESE,118,2.0,4.0,-999,-99.99,,,-99.99,,2013-05-27 12:32:00,
2013-05-27 05:42:00,54.0,-99.9,29.88,SE,126,3.0,4.0,-999,-99.99,,,-99.99,,2013-05-27 12:42:00,
2013-05-27 05:52:00,54.0,-99.9,29.88,SSE,150,4.0,5.0,-999,-99.99,,,-99.99,,2013-05-27 12:52:00,
2013-05-27 06:02:00,54.0,-99.9,29.87,SE,139,6.0,7.0,-999,-99.99,,,-99.99,,2013-05-27 13:02:00,
2013-05-27 06:11:00,54.0,-99.9,29.87,ESE,112,2.0,4.0,-999,-99.99,,,-99.99,,2013-05-27 13:11:00,
2013-05-27 06:22:00,54.0,-99.9,29.86,SE,133,1.0,2.0,-999,-99.99,,,-99.99,,2013-05-27 13:22:00,
2013-05-27 06:32:00,54.0,-99.9,29.86,SSE,153,3.0,4.0,-999,-99.99,,,-99.99,,2013-05-27 13:32:00,
2013-05-27 06:42:00,54.0,-99.9,29.86,South,169,4.0,5.0,-999,-99.99,,,-99.99,,2013-05-27 13:42:00,
2013-05-27 06:53:00,54.0,-99.9,29.85,SE,132,6.0,7.0,-999,-99.99,,,-99.99,,2013-05-27 13:53:00,
2013-05-27 07:02:00,54.0,-99.9,29.85,SE,138,5.0,6.0,-999,-99.99,,,-99.99,,2013-05-27 14:02:00,
2013-05-27 07:11:00,55.0,-99.9,29.85,East,99,5.0,8.0,-999,-99.99,,,-99.99,,2013-05-27 14:11:00,
2013-05-27 07:22:00,55.0,-99.9,29.85,East,101,4.0,6.0,-999,-99.99,,,-99.99,,2013-05-27 14:22:00,
2013-05-27 07:32:00,55.0,-99.9,29.84,ESE,106,5.0,6.0,-999,-99.99,,,-99.99,,2013-05-27 14:32:00,
2013-05-27 07:42:00,55.0,-99.9,29.83,ESE,103,3.0,9.0,-999,-99.99,,,-99.99,,2013-05-27 14:42:00,
2013-05-27 07:52:00,55.0,-99.9,29.83,ESE,111,5.0,7.0,-999,-99.99,,,-99.99,,2013-05-27 14:52:00,
2013-05-27 08:02:00,55.0,-99.9,29.83,ESE,112,2.0,7.0,-999,-99.99,,,-99.99,,2013-05-27 15:02:00,
2013-05-27 08:11:00,55.0,-99.9,29.82,ESE,121,3.0,5.0,-999,-99.99,,,-99.99,,2013-05-27 15:11:00,
2013-05-27 08:22:00,56.0,-99.9,29.82,East,101,2.0,4.0,-999,-99.99,,,-99.99,,2013-05-27 15:22:00,
2013-05-27 08:33:00,56.0,-99.9,29.81,SE,124,4.0,6.0,-999,-99.99,,,-99.99,,2013-05-27 15:33:00,
2013-05-27 08:43:00,55.0,-99.9,29.81,SE,146,5.0,8.0,-999,-99.99,,,-99.99,,2013-05-27 15:43:00,
2013-05-27 08:53:00,55.0,-99.9,29.80,SE,124,3.0,6.0,-999,-99.99,,,-99.99,,2013-05-27 15:53:00,
2013-05-27 09:03:00,55.0,-99.9,29.80,SE,127,5.0,8.0,-999,-99.99,,,-99.99,,2013-05-27 16:03:00,
2013-05-27 09:12:00,55.0,-99.9,29.80,ESE,107,4.0,5.0,-999,-99.99,,,-99.99,,2013-05-27 16:12:00,
2013-05-27 09:23:00,55.0,-99.9,29.80,ESE,105,4.0,6.0,-999,-99.99,,,-99.99,,2013-05-27 16:23:00,
2013-05-27 09:33:00,55.0,-99.9,29.79,ESE,123,4.0,5.0,-999,-99.99,,,-99.99,,2013-05-27 16:33:00,
2013-05-27 09:42:00,55.0,-99.9,29.78,SE,142,4.0,6.0,-999,-99.99,,,-99.99,,2013-05-27 16:42:00,
2013-05-27 09:53:00,55.0,-99.9,29.78,SE,127,5.0,8.0,-999,-99.99,,,-99.99,,2013-05-27 16:53:00,
2013-05-27 10:02:00,56.0,-99.9,29.77,SE,125,4.0,7.0,-999,-99.99,,,-99.99,,2013-05-27 17:02:00,
2013-05-27 10:12:00,56.0,-99.9,29.77,SE,128,5.0,7.0,-999,-99.99,,,-99.99,,2013-05-27 17:12:00,
2013-05-27 10:22:00,56.0,-99.9,29.77,ESE,111,4.0,7.0,-999,-99.99,,,-99.99,,2013-05-27 17:22:00,
2013-05-27 10:32:00,56.0,-99.9,29.76,ESE,107,2.0,7.0,-999,-99.99,,,-99.99,,2013-05-27 17:32:00,
2013-05-27 10:43:00,57.0,-99.9,29.76,East,87,6.0,9.0,-999,-99.99,,,-99.99,,2013-05-27 17:43:00,
2013-05-27 10:52:00,57.0,-99.9,29.76,ESE,106,4.0,8.0,-999,-99.99,,,-99.99,,2013-05-27 17:52:00,
2013-05-27 11:02:00,57.0,-99.9,29.75,ESE,121,4.0,9.0,-999,-99.99,,,-99.99,,2013-05-27 18:02:00,
2013-05-27 11:11:00,57.0,-99.9,29.75,East,88,6.0,9.0,-999,-99.99,,,-99.99,,2013-05-27 18:11:00,
2013-05-27 11:22:00,58.0,-99.9,29.75,East,86,6.0,8.0,-999,-99.99,,,-99.99,,2013-05-27 18:22:00,
2013-05-27 11:32:00,58.0,-99.9,29.75,ESE,120,4.0,8.0,-999,-99.99,,,-99.99,,2013-05-27 18:32:00,
2013-05-27 11:42:00,58.0,-99.9,29.75,ESE,117,7.0,10.0,-999,-99.99,,,-99.99,,2013-05-27 18:42:00,
2013-05-27 11:52:00,58.0,-99.9,29.75,SE,129,4.0,8.0,-999,-99.99,,,-99.99,,2013-05-27 18:52:00,
2013-05-27 12:01:00,58.0,-99.9,29.74,ESE,115,4.0,8.0,-999,-99.99,,,-99.99,,2013-05-27 19:01:00,
2013-05-27 12:11:00,58.0,-99.9,29.74,ESE,110,4.0,9.0,-999,-99.99,,,-99.99,,2013-05-27 19:11:00,
2013-05-27 12:22:00,59.0,-99.9,29.74,SE,140,3.0,7.0,-999,-99.99,,,-99.99,,2013-05-27 19:22:00,
2013-05-27 12:32:00,59.0,-99.9,29.74,SE,140,8.0,11.0,-999,-99.99,,,-99.99,,2013-05-27 19:32:00,
2013-05-27 12:42:00,59.0,-99.9,29.74,SE,131,6.0,8.0,-999,-99.99,,,-99.99,,2013-05-27 19:42:00,
2013-05-27 12:52:00,59.0,-99.9,29.74,SE,129,5.0,10.0,-999,-99.99,,,-99.99,,2013-05-27 19:52:00,
2013-05-27 13:02:00,59.0,-99.9,29.73,ESE,119,6.0,11.0,-999,-99.99,,,-99.99,,2013-05-27 20:02:00,
2013-05-27 13:11:00,59.0,-99.9,29.73,ESE,110,6.0,11.0,-999,-99.99,,,-99.99,,2013-05-27 20:11:00,
2013-05-27 13:22:00,59.0,-99.9,29.73,SE,128,6.0,10.0,-999,-99.99,,,-99.99,,2013-05-27 20:22:00,
2013-05-27 13:32:00,59.0,-99.9,29.73,SE,125,5.0,8.0,-999,-99.99,,,-99.99,,2013-05-27 20:32:00,
2013-05-27 13:42:00,59.0,-99.9,29.73,SE,127,6.0,10.0,-999,-99.99,,,-99.99,,2013-05-27 20:42:00,
2013-05-27 13:53:00,59.0,-99.9,29.73,SE,138,7.0,10.0,-999,-99.99,,,-99.99,,2013-05-27 20:53:00,
2013-05-27 14:01:00,59.0,-99.9,29.73,SE,138,6.0,8.0,-999,-99.99,,,-99.99,,2013-05-27 21:01:00,
2013-05-27 14:12:00,59.0,-99.9,29.73,ESE,118,6.0,9.0,-999,-99.99,,,-99.99,,2013-05-27 21:12:00,
2013-05-27 14:22:00,59.0,-99.9,29.73,SE,128,6.0,9.0,-999,-99.99,,,-99.99,,2013-05-27 21:22:00,
2013-05-27 14:33:00,59.0,-99.9,29.73,SE,130,4.0,7.0,-999,-99.99,,,-99.99,,2013-05-27 21:33:00,
2013-05-27 14:43:00,59.0,-99.9,29.73,SE,137,6.0,9.0,-999,-99.99,,,-99.99,,2013-05-27 21:43:00,
2013-05-27 14:53:00,59.0,-99.9,29.73,SE,137,6.0,8.0,-999,-99.99,,,-99.99,,2013-05-27 21:53:00,
2013-05-27 15:03:00,60.0,-99.9,29.73,East,100,7.0,11.0,-999,-99.99,,,-99.99,,2013-05-27 22:03:00,
2013-05-27 15:13:00,60.0,-99.9,29.73,SSE,159,5.0,7.0,-999,-99.99,,,-99.99,,2013-05-27 22:13:00,
2013-05-27 15:23:00,60.0,-99.9,29.73,SE,137,8.0,13.0,-999,-99.99,,,-99.99,,2013-05-27 22:23:00,
2013-05-27 15:33:00,60.0,-99.9,29.74,SE,124,7.0,12.0,-999,-99.99,,,-99.99,,2013-05-27 22:33:00,
2013-05-27 15:42:00,60.0,-99.9,29.74,SSE,152,8.0,14.0,-999,-99.99,,,-99.99,,2013-05-27 22:42:00,
2013-05-27 15:53:00,60.0,-99.9,29.74,SSE,152,6.0,12.0,-999,-99.99,,,-99.99,,2013-05-27 22:53:00,
2013-05-27 16:02:00,60.0,-99.9,29.74,ESE,118,5.0,8.0,-999,-99.99,,,-99.99,,2013-05-27 23:02:00,
2013-05-27 16:12:00,60.0,-99.9,29.74,SE,136,6.0,11.0,-999,-99.99,,,-99.99,,2013-05-27 23:12:00,
2013-05-27 16:22:00,60.0,-99.9,29.74,SSE,151,6.0,11.0,-999,-99.99,,,-99.99,,2013-05-27 23:22:00,
2013-05-27 16:32:00,60.0,-99.9,29.74,SE,129,4.0,10.0,-999,-99.99,,,-99.99,,2013-05-27 23:32:00,
2013-05-27 16:42:00,59.0,-99.9,29.73,ESE,112,6.0,10.0,-999,-99.99,,,-99.99,,2013-05-27 23:42:00,
2013-05-27 16:52:00,60.0,-99.9,29.73,ESE,102,7.0,12.0,-999,-99.99,,,-99.99,,2013-05-27 23:52:00,
2013-05-27 17:01:00,59.0,-99.9,29.73,East,101,4.0,11.0,-999,-99.99,,,-99.99,,2013-05-28 00:01:00,
2013-05-27 17:11:00,60.0,-99.9,29.73,ESE,105,5.0,9.0,-999,-99.99,,,-99.99,,2013-05-28 00:11:00,
2013-05-27 17:22:00,60.0,-99.9,29.73,ESE,104,6.0,9.0,-999,-99.99,,,-99.99,,2013-05-28 00:22:00,
2013-05-27 17:32:00,60.0,-99.9,29.73,SE,124,7.0,12.0,-999,-99.99,,,-99.99,,2013-05-28 00:32:00,
2013-05-27 17:42:00,60.0,-99.9,29.73,SE,129,11.0,13.0,-999,-99.99,,,-99.99,,2013-05-28 00:42:00,
2013-05-27 17:52:00,59.0,-99.9,29.73,SE,134,8.0,14.0,-999,-99.99,,,-99.99,,2013-05-28 00:52:00,
2013-05-27 18:01:00,58.0,-99.9,29.73,South,185,3.0,5.0,-999,-99.99,,,-99.99,,2013-05-28 01:01:00,
2013-05-27 18:11:00,59.0,-99.9,29.73,SSE,147,6.0,7.0,-999,-99.99,,,-99.99,,2013-05-28 01:11:00,
2013-05-27 18:22:00,59.0,-99.9,29.73,SSE,167,8.0,10.0,-999,-99.99,,,-99.99,,2013-05-28 01:22:00,
2013-05-27 18:32:00,59.0,-99.9,29.73,SE,145,4.0,7.0,-999,-99.99,,,-99.99,,2013-05-28 01:32:00,
2013-05-27 18:42:00,59.0,-99.9,29.73,South,174,4.0,7.0,-999,-99.99,,,-99.99,,2013-05-28 01:42:00,
2013-05-27 18:52:00,59.0,-99.9,29.73,SE,145,2.0,4.0,-999,-99.99,,,-99.99,,2013-05-28 01:52:00,
2013-05-27 19:02:00,59.0,-99.9,29.73,SE,145,5.0,8.0,-999,-99.99,,,-99.99,,2013-05-28 02:02:00,
2013-05-27 19:11:00,59.0,-99.9,29.74,SE,130,6.0,9.0,-999,-99.99,,,-99.99,,2013-05-28 02:11:00,
2013-05-27 19:22:00,59.0,-99.9,29.74,SE,143,7.0,9.0,-999,-99.99,,,-99.99,,2013-05-28 02:22:00,
2013-05-27 19:32:00,59.0,-99.9,29.74,South,169,8.0,13.0,-999,-99.99,,,-99.99,,2013-05-28 02:32:00,
2013-05-27 19:42:00,59.0,-99.9,29.75,South,182,4.0,11.0,-999,-99.99,,,-99.99,,2013-05-28 02:42:00,
2013-05-27 19:52:00,58.0,-99.9,29.75,South,177,5.0,8.0,-999,-99.99,,,-99.99,,2013-05-28 02:52:00,
2013-05-27 20:01:00,59.0,-99.9,29.75,South,173,6.0,11.0,-999,-99.99,,,-99.99,,2013-05-28 03:01:00,
2013-05-27 20:11:00,59.0,-99.9,29.75,South,176,5.0,11.0,-999,-99.99,,,-99.99,,2013-05-28 03:11:00,
2013-05-27 20:22:00,59.0,-99.9,29.76,SSW,192,3.0,9.0,-999,-99.99,,,-99.99,,2013-05-28 03:22:00,
2013-05-27 20:33:00,58.0,-99.9,29.75,WSW,242,6.0,9.0,-999,-99.99,,,-99.99,,2013-05-28 03:33:00,
2013-05-27 20:43:00,57.0,-99.9,29.76,SW,227,6.0,9.0,-999,-99.99,,,-99.99,,2013-05-28 03:43:00,
2013-05-27 20:53:00,58.0,-99.9,29.76,SSE,168,7.0,10.0,-999,-99.99,,,-99.99,,2013-05-28 03:53:00,
2013-05-27 21:03:00,58.0,-99.9,29.76,South,184,6.0,9.0,-999,-99.99,,,-99.99,,2013-05-28 04:03:00,
2013-05-27 21:13:00,58.0,-99.9,29.76,South,173,4.0,9.0,-999,-99.99,,,-99.99,,2013-05-28 04:13:00,
2013-05-27 21:23:00,57.0,-99.9,29.76,South,182,6.0,9.0,-999,-99.99,,,-99.99,,2013-05-28 04:23:00,
2013-05-27 21:33:00,57.0,-99.9,29.77,SSE,168,4.0,8.0,-999,-99.99,,,-99.99,,2013-05-28 04:33:00,
2013-05-27 21:43:00,57.0,-99.9,29.77,SSW,197,8.0,11.0,-999,-99.99,,,-99.99,,2013-05-28 04:43:00,
2013-05-27 21:53:00,57.0,-99.9,29.78,SSW,196,7.0,12.0,-999,-99.99,,,-99.99,,2013-05-28 04:53:00,
2013-05-27 22:02:00,56.0,-99.9,29.78,SSW,209,9.0,13.0,-999,-99.99,,,-99.99,,2013-05-28 05:02:00,
2013-05-27 22:12:00,56.0,-99.9,29.78,SSW,200,9.0,12.0,-999,-99.99,,,-99.99,,2013-05-28 05:12:00,
2013-05-27 22:22:00,57.0,-99.9,29.78,South,191,4.0,9.0,-999,-99.99,,,-99.99,,2013-05-28 05:22:00,
2013-05-27 22:33:00,57.0,-99.9,29.78,South,190,6.0,9.0,-999,-99.99,,,-99.99,,2013-05-28 05:33:00,
2013-05-27 22:42:00,57.0,-99.9,29.79,South,172,5.0,7.0,-999,-99.99,,,-99.99,,2013-05-28 05:42:00,
2013-05-27 22:52:00,56.0,-99.9,29.79,SSW,197,3.0,7.0,-999,-99.99,,,-99.99,,2013-05-28 05:52:00,
2013-05-27 23:02:00,56.0,-99.9,29.79,SSW,198,4.0,8.0,-999,-99.99,,,-99.99,,2013-05-28 06:02:00,
2013-05-27 23:12:00,57.0,-99.9,29.79,South,175,6.0,7.0,-999,-99.99,,,-99.99,,2013-05-28 06:12:00,
2013-05-27 23:22:00,56.0,-99.9,29.79,SSW,197,7.0,9.0,-999,-99.99,,,-99.99,,2013-05-28 06:22:00,
2013-05-27 23:32:00,56.0,-99.9,29.79,SSW,196,5.0,10.0,-999,-99.99,,,-99.99,,2013-05-28 06:32:00,
2013-05-27 23:42:00,56.0,-99.9,29.79,South,185,5.0,11.0,-999,-99.99,,,-99.99,,2013-05-28 06:42:00,
2013-05-27 23:52:00,56.0,-99.9,29.80,SSW,204,8.0,13.0,-999,-99.99,,,-99.99,,2013-05-28 06:52:00,